Simultaneous Nadir Overpasses (SNOs) Predictions

Prediction of SNOs between LANDSAT-8 and METOP-B Satellite Orbit:

Table of predicted SNOs for the next 14.0 days since TLE Epoch: 10/28/2022
Index Date (LANDSAT-8) Time (LANDSAT-8) Lat,Lon (LANDSAT-8) SZA (LANDSAT-8 ) Date (METOP-B) Time (METOP-B) Lat,Lon (METOP-B) SZA (METOP-B ) Distance(km) Time Diff (sec)
1 10/31/2022 06:30:15 81.13, 122.53 97.65 10/31/2022 06:30:06 81.13, 122.71 97.67 3.08 9
2 10/31/2022 07:19:41 -81.15, -69.53 82.30 10/31/2022 07:20:46 -81.15, -69.51 82.27 0.59 65
3 11/03/2022 01:15:16 -80.83, 17.19 82.12 11/03/2022 01:14:02 -80.94, 16.89 82.10 12.53 74
4 11/03/2022 02:04:31 81.12,-171.23 98.51 11/03/2022 02:04:30 81.12,-171.24 98.51 0.18 1
5 11/03/2022 02:53:57 -81.14, -3.27 81.43 11/03/2022 02:55:10 -81.14, -3.43 81.42 2.82 73
6 11/05/2022 20:49:20 -81.09, 87.19 80.70 11/05/2022 20:48:13 -81.10, 87.33 80.71 2.62 67
7 11/05/2022 21:38:45 81.12,-104.76 99.38 11/05/2022 21:38:52 81.12,-104.86 99.37 1.59 7
8 11/08/2022 16:23:34 -81.11, 153.91 79.84 11/08/2022 16:22:35 -81.11, 154.05 79.85 2.42 59
9 11/08/2022 17:13:00 81.11, -38.43 100.18 11/08/2022 17:13:15 81.12, -38.53 100.18 1.74 15
10 11/11/2022 11:57:49 -81.10,-139.87 79.09 11/11/2022 11:56:59 -81.10,-140.03 79.13 2.90 50



Historial Predications of SNOs between LANDSAT-8 and METOP-B
